Location: Praha
(50.0830°N, 14.4670°E)
Time: 22:10:04
(UTC+01:00)

ISS - Pass Details

Date: 06 November 2019
Orbit: 412 x 421 km, 51.6° (Epoch: 15 November)

Event Time Altitude Azimuth Distance (km) Brightness Sun altitude
Exits shadow 04:59:37 70° 332° (NNW) 454 -3.8 -19.5°
Maximum altitude 04:59:51 74° 10° (N) 444 -3.7 -19.4°
Drops below altitude 10° 05:03:13 10° 96° (E) 1,504 0.3 -18.9°
Sets 05:05:19 0° 98° (E) 2,366 1.7 -18.6°
